Погода Пограничное

Погода Пограничное : погода сейчас, прогноз погоды и архив. Всё, что Вы хотите узнать о погоде Пограничное!

Хотите узнать прогноз погоды Пограничное? Тогда Вам сюда: Погода Пограничное

Поиск расширенной информации на нашем сайте:

Другие новости

Новости СМИ2

Главная страница сайта

Новости сайта

03.07.2017

Напоминаем, что на нашем специализированном сайте Метеоцентр.Азия вы можете получить высокодетализированные автоматические прогнозы погоды по пунктам России, СНГ и мира в авиационном формате (включающие направление и скорость ветра, видимость, явления погоды, количество и форму облачности, нижнюю и верхнюю границу облачности).

Рекомендуем: ремонт стиральной машины бош макс

Погода Пограничное - сегодня

Время (UTC), дата Ветер
(°,м/с) 
Видим.   Явления Облачность Т
(°С)
Тd
(°С)
f(%) Тe
(°С)
Pmin
(гПа)
dP
(гПа)
Po
(мм)
O2
(г/м3)
Тmin Tmax R s Состояние
почвы
18 16.08.17 060 (СВ) 1-2{02}  2000 м  слаб. дождь{ливн. осадки}  10/10 300 м 
[Frnb|Ns]
+8.5 +8.2 98 +10  1015.5  0.1  761  296           
21 16.08.17 080 (В) 1-2{02}  10 км  {дождь}  10/10 300 м 
[Frnb|Ns]
+9.2 +8.9 98 +10  1015.6  0.1  761  295  +8.2    13    мокрая 
00 17.08.17 070 (В) 1-2{03}  4000 м  дождь  10/10 300 м 
[Frnb|Ns]
+9.5 +9.2 98 +11  1016.1  0.5  761  295           
03 17.08.17 070 (В) 1-2{02}  10 км  {дождь}  10/10 300 м 
[Frnb|Ns]
+10 +9.2 95 +11  1015.8  -0.3  761  294           
06 17.08.17 040 (СВ) 1-3{04}  10 км  {дождь}  10/10 200 м 
[St]
+10.8 +9.8 94 +13  1015.1  -0.6  761  293           
09 17.08.17 020 (С) 1-2{04}  10 км    10/10 200 м 
[St]
+10.6 +10.1 97 +13  1015.1  761  293    +11.3     
12 17.08.17 тихо () {02}  10 км  в посл. час дождь  10/10 300 м 
[Ns]
+8.6 +8.2 97 +9  1015.6  0.5  761  296           
15 17.08.17 тихо () {02}  10 км    10/10 300 м 
[Ns]
+8.8 +8.5 98 +9  1015  -0.6  760  295           
18 17.08.17 070 (В) 1-2{02}  4000 м  слаб. дождь  10/10 300 м 
[Ns]
+8 +7.7 98 +9  1014.8  -0.2  760  296           
21 17.08.17 тихо () {02}  2000 м  дождь  10/10 300 м 
[Ns]
+9.3 +9 98 +9  1014.9  0.1  760  295  +8      мокрая 
00 18.08.17 060 (СВ) 1-2{03}  4000 м  слаб. морось{дождь}  10/10 300 м 
[St]
+9.8 +9.5 98 +11  1015.5  0.7  761  294           
03 18.08.17 080 (В) 1-2{03}  2000 м  слаб. ливневой дождь  10/10 300 м 
[Ns]
+9.5 +9.2 98 +11  1015.1  -0.5  761  295           
06 18.08.17 030 (СВ) 1-2{03}  2000 м  слаб. ливневой дождь  10/10 300 м 
[Ns]
+10.2 +9.8 97 +12  1014.8  -0.3  760  294           
09 18.08.17 тихо () {02}  0500 м  туман{ливн. осадки}  ?/?  
+8.7 +8.4 98 +9  1014.7  760  295    +10.4  13     
12 18.08.17 тихо () {02}  0500 м  туман{ливн. осадки}  ?/?  
+9.6 +9.3 98 +10  1015.5  0.7  761  294           
18 18.08.17 220 (ЮЗ) 1{02}  0500 м  туман  ?/?  
+7.7 +7.4 98 +9  1015.1  -0.4  761  297           
21 18.08.17 тихо () {02}  20000 м  {туман}  6/6 600 м 
[Sc]
+10.2 +10 99 +11  1015.4  0.3  761  294  +7.2        мокрая 
00 19.08.17 050 (СВ) 2-3{04}  20000 м  {туман}  4/4 600 м 
[Cu med, cong]
+10.4 +9.2 92 +11  1015.8  0.4  761  294           
03 19.08.17 130 (ЮВ) 3-6{06}  20000 м    8/8 300 м 
[Cu Sc]
+13.3 +11.9 91 +16  1015.2  -0.6  761  290           
06 19.08.17 130 (ЮВ) 3-6{07}  20000 м    6/6 300 м 
[Sc]
+12.6 +10.5 87 +14  1014.2  -1  760  291           
09 19.08.17 290 (З) 1-1{07}  20000 м    8/8 300 м 
[Sc]
+10.3 +9.2 93 +11  1014.2  760  293    +14.4       
12 19.08.17 230 (ЮЗ) 1-2{02}  20000 м    6/6 300 м 
[Sc]
+10.9 +10.4 97 +13  1014.9  0.7  760  293           
15 19.08.17 тихо () {02}  20000 м    3/0 верхняя 
[Ci fib]
+9.3 +8.8 97 +9  1015  0.1  761  295           
18 19.08.17 310 (СЗ) 1-2{02}  20000 м    ясно 
+7.7 +7.3 97 +9  1014.5  0.1  760  297           
21 19.08.17 тихо () {02}  20000 м    ясно 
+11.2 +10.9 98 +13  1014.3  -0.2  760  292  +6.9        влажная 
Время (UTC), дата Ветер
(°,м/с) 
Видим.   Явления Облачность Т
(°С)
Тd
(°С)
f(%) Тe
(°С)
Pmin
(гПа)
dP
(гПа)
Po
(мм)
O2
(г/м3)
Тmin Tmax R s Состояние
почвы

Для получения пояснительной информации подведите курсор к названию столбца.

ПОГОДА Пограничное - архив

Всё, что Вы хотите узнать о погоде Пограничное - удобно и подробно!

Выберите нужную дату (начиная с 1 января 2015* года) и нажмите кнопку "Найти".
Будут отображены архивные сводки погоды по пункту Пограничное, начиная с указанной даты.


Отображать данные в формате CSV (для использования в таблицах Excel)


Внимание! Наш архив погоды предназначен исключительно для личного некоммерческого использования в познавательных целях. Если Вам необходимы официальные справки о состоянии погоды (для производственных, юридических, коммерческих и т.п. целей), обращайтесь в органы Росгидромета.

*Примечание: данная дата относится к архиву по метеостанциям СССР (Россия, СНГ, Балтия).
Архив по метеостанциям Зарубежной Европы и Азии (кроме Китая) хранится 10 дней, по другим регионам земного шара (Китай, Африка, Америка, Австралия, Океания) - 1 день.

Пограничное - район местоположения метеостанции


Название, широта, долгота, высота метеостанции:
Пограничное 50.4°ш. 143.8°д. 8 м над ур. моря [Российская Федерация]

Дополнительная информация

В oтличие oт бoльшинства пoгoдных сайтoв мы публикуем пoдрoбную метеoинфoрмацию в детальнoм прoфессиoнальнoм фoрмате.

Характеристики температуры и влажнoсти вoздуха измеряются на высoте 2 м в тени вдали oт зданий и деревьев.
Скoрoсть ветра измеряется на высoте 10 м (на урoвне рoста челoвека скoрoсть ветра ниже в 1.5-2 раза). Если метеoстанция нахoдится в гoрoде или в лесу, тo скoрoсть ветра занижена на 2-4 м/с пo сравнению с oткрытым местoм. Скoрoсть ветра над акватoриями крупных рек и oзёр, а также на вершинах хoлмoв на 2-5 м/с выше, чем в oбычных услoвиях.
Атмoсфернoе давление в разных тoчках местнoсти мoжет значительнo oтличаться oт давления на метеoстанции, в зависимoсти oт услoвий рельефа (при пoдъёме на 10 м давление пoнижается примернo на 1 мм рт.ст.).